Regional Weather Roundup
Issued by NWS

Home | Current Version | Previous Version | Text Only | Print | Product List | Glossary On
Versions: 1 2 3 4 5 6 7 8 9 10 11 12 13 14 15 16 17 18 19 20 21 22 23 24 25 26 27 28 29 30 31 32 33 34 35 36 37 38 39 40 41 42 43 44 45 46 47 48 49 50
000
ASUS43 KOAX 210610
RWRNE

WEATHER ROUNDUP FOR NEBRASKA
NATIONAL WEATHER SERVICE OMAHA NE
1200 AM CST SUN DEC 21 2014

NOTES: SATELLITE DATA IS BEING USED TO AUGMENT CLOUD COVER ABOVE
       12000 FEET.
       "FAIR" INDICATES FEW OR NO CLOUDS BELOW 12,000 FEET WITH NO
       SIGNIFICANT WEATHER AND/OR OBSTRUCTIONS TO VISIBILITY.

  * THESE STATIONS DO NOT REPORT WEATHER SUCH AS RAIN...SNOW OR FOG.

NEZ001>004-019>022-054>056-210700-
NEBRASKA PANHANDLE

CITY           SKY/WX    TMP DP  RH WIND       PRES   REMARKS
SCOTTSBLUFF    CLOUDY    38  29  70 NW6       29.88F WCI  33
6HR MIN TEMP:  25; 6HR MAX TEMP:  43; 6HR PCP: TRACE;

ALLIANCE       CLOUDY    23  20  88 W3        29.86F
6HR MIN TEMP:  20; 6HR MAX TEMP:  32;

CHADRON        MOCLDY    29  24  82 SW6       29.84F WCI  23
6HR MIN TEMP:  27; 6HR MAX TEMP:  34;

KIMBALL        CLOUDY    35  25  67 W6        29.88S WCI  30
SIDNEY         CLOUDY    30  24  78 CALM      29.89F
6HR MIN TEMP:  29; 6HR MAX TEMP:  37;

$$

NEZ057>060-069>072-079>082-210700-
SOUTHWEST NEBRASKA

CITY           SKY/WX    TMP DP  RH WIND       PRES   REMARKS
NORTH PLATTE   MOCLDY    26  24  92 NW3       29.91F
6HR MIN TEMP:  22; 6HR MAX TEMP:  34;

IMPERIAL       MOCLDY    32  25  75 SW9       29.91F WCI  24
6HR MIN TEMP:  28; 6HR MAX TEMP:  41;

LEXINGTON      CLEAR     26  24  93 CALM      29.92S
MCCOOK         PTCLDY    26  24  92 W5        29.92F WCI  20
6HR MIN TEMP:  26; 6HR MAX TEMP:  42;

OGALLALA       CLOUDY    28  26  92 W3        29.90F
$$

NEZ005>010-023>029-035>040-094-210700-
NORTH CENTRAL NEBRASKA

CITY           SKY/WX    TMP DP  RH WIND       PRES   REMARKS
VALENTINE      MOCLDY    25  22  88 SW6       29.86F WCI  18
6HR MIN TEMP:  24; 6HR MAX TEMP:  32;

AINSWORTH      PTCLDY    27  22  84 W6        29.87S WCI  20
BROKEN BOW     CLEAR     26  24  92 SW5       29.90F WCI  20
6HR MIN TEMP:  26; 6HR MAX TEMP:  36;

O`NEILL        FOG       31  31 100 S7        29.90S VSB 1/2 WCI  24
THEDFORD       PTCLDY    29  26  89 SW6       29.89S WCI  23
$$

NEZ041-046>049-061>064-073>077-083>087-210700-
SOUTH CENTRAL NEBRASKA

CITY           SKY/WX    TMP DP  RH WIND       PRES   REMARKS
GRAND ISLAND   FOG       28  27  96 CALM      29.94F VSB 3/4
6HR MIN TEMP:  26; 6HR MAX TEMP:  32;

AURORA         FOG       32  32 100 S7        29.93F VSB 1/4 WCI  26
HASTINGS       FOG       29  27  92 S5        29.93F VSB 1/4 WCI  24
6HR MIN TEMP:  29; 6HR MAX TEMP:  35;

HEBRON         PTCLDY    37  34  90 SW13G18   29.97S WCI  28
HOLDREGE       CLEAR     32  29  88 CALM      29.92S
KEARNEY *      CLEAR     28  27  93 S6        29.92S WCI  22
YORK           FOG       34  34 100 S10       29.95F VSB 1/2 WCI  26
$$

NEZ011>018-030>034-042>045-210700-
NORTHEAST NEBRASKA

CITY           SKY/WX    TMP DP  RH WIND       PRES   REMARKS
NORFOLK        FOG       33  33 100 S8        29.94F VSB 1/4 WCI  26
6HR MIN TEMP:  31; 6HR MAX TEMP:  33;

ALBION         FOG       32  31  95 S7        29.93F VSB 1/2 WCI  26
BLAIR          FOG       35  34  94 SE9       30.00S VSB 3/4 WCI  28
COLUMBUS *     CLOUDY    34  30  86 CALM      29.98F VSB 1/4
FREMONT        FOG       35  35  99 SE9       29.99F VSB 1/2 WCI  28
TEKAMAH        CLOUDY    34  32  92 SE12      30.01F FOG     WCI  25
6HR MIN TEMP:  33; 6HR MAX TEMP:  34;

WAYNE          FOG       32  32  99 S10       29.97F VSB 1/2 WCI  24
$$

NEZ050>053-065>068-078-088>093-210700-
SOUTHEAST NEBRASKA

CITY           SKY/WX    TMP DP  RH WIND       PRES   REMARKS
LINCOLN        CLEAR     35  33  92 S5        30.00F FOG     WCI  31
6HR MIN TEMP:  34; 6HR MAX TEMP:  37;

OMAHA EPPLEY   FOG       35  34  96 SE7       30.03F VSB 1   WCI  29
6HR MIN TEMP:  34; 6HR MAX TEMP:  35;

BEATRICE       CLEAR     36  35  94 S8        30.00S WCI  30
FALLS CITY     PTCLDY    35  33  92 S7        30.05S WCI  29
6HR MIN TEMP:  32; 6HR MAX TEMP:  35;

NEBRASKA CITY  MOCLDY    33  33 100 S8        30.02F FOG     WCI  26
PLATTSMOUTH    CLOUDY    34  33  96 SE10      30.01F FOG     WCI  26
$$

NEZ044-045-051>053-067-210700-
OMAHA AREA

CITY           SKY/WX    TMP DP  RH WIND       PRES   REMARKS
OMAHA EPPLEY   FOG       35  34  96 SE7       30.03F VSB 1   WCI  29
6HR MIN TEMP:  34; 6HR MAX TEMP:  35;

BLAIR          FOG       35  34  94 SE9       30.00S VSB 3/4 WCI  28
FREMONT        FOG       35  35  99 SE9       29.99F VSB 1/2 WCI  28
MILLARD        CLOUDY    35  34  96 SE6       30.02S FOG     WCI  30
OFFUTT AFB     CLOUDY    34  34  98 SE7       30.01F FOG     WCI  28
PLATTSMOUTH    CLOUDY    34  33  96 SE10      30.01F FOG     WCI  26
WAHOO          FOG       35  33  92 SE7       29.99F VSB 1/4 WCI  29
$$


USA.gov is the U.S. government's official web portal to all federal, state and local government web resources and services.